• In Austria
  • List of Countries
  • For 7 days
  • Water Temperature
  • Satellite Maps
  • Weather Map
  • News
  • Weather Widgets
  • user-avatar
    Login

    Hourly Weather Meknes

    Today, 20 January, Saturday

    Time Temperature Precipitation Wind Pressure Humidity
    00:00 +10°C° 0 mm 1 mps 723 mmHg 84%
    01:00 +10°C° 0 mm 1 mps 723 mmHg 83%
    02:00 +9°C° 0 mm 1 mps 722 mmHg 83%
    03:00 +9°C° 0 mm 1 mps 722 mmHg 83%
    04:00 +9°C° 0 mm 1 mps 722 mmHg 82%
    05:00 +9°C° 0 mm 1 mps 723 mmHg 82%
    06:00 +8°C° 0 mm 1 mps 723 mmHg 83%
    07:00 +10°C° 0 mm 1 mps 723 mmHg 78%
    08:00 +10°C° 0 mm 0 mps 724 mmHg 73%
    09:00 +11°C° 0 mm 0 mps 724 mmHg 69%
    10:00 +14°C° 0 mm 1 mps 724 mmHg 64%
    11:00 +15°C° 0 mm 1 mps 725 mmHg 60%
    12:00 +16°C° 0 mm 1 mps 725 mmHg 58%
    13:00 +16°C° 0 mm 1 mps 725 mmHg 56%
    14:00 +17°C° 0 mm 2 mps 725 mmHg 55%
    15:00 +17°C° 0 mm 2 mps 725 mmHg 54%
    16:00 +15°C° 0 mm 1 mps 725 mmHg 63%
    17:00 +14°C° 0 mm 1 mps 724 mmHg 71%
    18:00 +12°C° 0 mm 1 mps 724 mmHg 80%
    19:00 +11°C° 0 mm 1 mps 725 mmHg 82%
    20:00 +10°C° 0 mm 0 mps 725 mmHg 85%
    21:00 +9°C° 0 mm 0 mps 725 mmHg 87%
    22:00 +9°C° 0 mm 0 mps 725 mmHg 86%
    23:00 +9°C° 0 mm 0 mps 725 mmHg 85%

    Tomorrow, 21 January, Sunday

    Time Temperature Precipitation Wind Pressure Humidity
    00:00 +8°C° 0 mm 0 mps 725 mmHg 85%
    01:00 +8°C° 0 mm 0 mps 725 mmHg 83%
    02:00 +8°C° 0 mm 0 mps 725 mmHg 81%
    03:00 +8°C° 0 mm 0 mps 725 mmHg 79%
    04:00 +8°C° 0 mm 0 mps 725 mmHg 77%
    05:00 +9°C° 0 mm 1 mps 725 mmHg 75%
    06:00 +8°C° 0 mm 1 mps 725 mmHg 73%
    07:00 +10°C° 0 mm 1 mps 725 mmHg 69%
    08:00 +11°C° 0 mm 1 mps 726 mmHg 64%
    09:00 +12°C° 0 mm 1 mps 726 mmHg 60%
    10:00 +14°C° 0 mm 1 mps 726 mmHg 53%
    11:00 +15°C° 0 mm 1 mps 726 mmHg 45%
    12:00 +18°C° 0 mm 1 mps 726 mmHg 38%
    13:00 +18°C° 0 mm 1 mps 726 mmHg 39%
    14:00 +19°C° 0 mm 1 mps 725 mmHg 39%
    15:00 +18°C° 0 mm 2 mps 725 mmHg 40%
    16:00 +16°C° 0 mm 2 mps 725 mmHg 50%
    17:00 +14°C° 0 mm 1 mps 725 mmHg 60%
    18:00 +12°C° 0 mm 1 mps 724 mmHg 70%
    19:00 +11°C° 0 mm 1 mps 725 mmHg 73%
    20:00 +10°C° 0 mm 0 mps 725 mmHg 76%
    21:00 +9°C° 0 mm 0 mps 725 mmHg 79%
    22:00 +9°C° 0 mm 0 mps 725 mmHg 79%
    23:00 +8°C° 0 mm 0 mps 725 mmHg 80%

    Day after tomorrow, 22 January, Monday

    Time Temperature Precipitation Wind Pressure Humidity
    00:00 +8°C° 0 mm 0 mps 725 mmHg 80%
    01:00 +8°C° 0 mm 0 mps 724 mmHg 79%
    02:00 +8°C° 0 mm 0 mps 724 mmHg 79%
    03:00 +7°C° 0 mm 0 mps 724 mmHg 78%
    04:00 +7°C° 0 mm 0 mps 724 mmHg 76%
    05:00 +7°C° 0 mm 0 mps 723 mmHg 75%
    06:00 +7°C° 0 mm 0 mps 723 mmHg 74%
    07:00 +8°C° 0 mm 0 mps 724 mmHg 70%
    08:00 +10°C° 0 mm 0 mps 724 mmHg 67%
    09:00 +12°C° 0 mm 1 mps 724 mmHg 63%
    10:00 +14°C° 0 mm 1 mps 724 mmHg 57%
    11:00 +15°C° 0 mm 1 mps 724 mmHg 51%
    12:00 +18°C° 0 mm 1 mps 725 mmHg 45%
    13:00 +18°C° 0 mm 1 mps 724 mmHg 46%
    14:00 +19°C° 0 mm 1 mps 724 mmHg 46%
    15:00 +18°C° 0 mm 2 mps 723 mmHg 47%
    16:00 +16°C° 0 mm 1 mps 723 mmHg 56%
    17:00 +14°C° 0 mm 1 mps 723 mmHg 66%
    18:00 +12°C° 0 mm 1 mps 723 mmHg 76%
    19:00 +12°C° 0 mm 1 mps 723 mmHg 78%
    20:00 +10°C° 0 mm 0 mps 723 mmHg 80%
    21:00 +9°C° 0 mm 0 mps 724 mmHg 82%
    22:00 +9°C° 0 mm 0 mps 723 mmHg 81%
    23:00 +9°C° 0 mm 0 mps 723 mmHg 81%

    23 January, Tuesday

    Time Temperature Precipitation Wind Pressure Humidity
    00:00 +9°C° 0 mm 0 mps 723 mmHg 81%
    01:00 +8°C° 0 mm 0 mps 723 mmHg 80%
    02:00 +8°C° 0 mm 0 mps 723 mmHg 78%
    03:00 +8°C° 0 mm 0 mps 722 mmHg 77%
    04:00 +8°C° 0 mm 0 mps 722 mmHg 76%
    05:00 +8°C° 0 mm 0 mps 722 mmHg 75%
    06:00 +8°C° 0 mm 0 mps 722 mmHg 74%
    07:00 +9°C° 0 mm 0 mps 723 mmHg 70%
    08:00 +11°C° 0 mm 0 mps 723 mmHg 66%
    09:00 +12°C° 0 mm 0 mps 724 mmHg 62%
    10:00 +14°C° 0 mm 0 mps 724 mmHg 56%
    11:00 +16°C° 0 mm 1 mps 724 mmHg 51%
    12:00 +19°C° 0 mm 1 mps 724 mmHg 45%
    13:00 +19°C° 0 mm 1 mps 723 mmHg 46%
    14:00 +19°C° 0 mm 1 mps 723 mmHg 47%
    15:00 +19°C° 0 mm 2 mps 722 mmHg 47%
    16:00 +18°C° 0 mm 1 mps 722 mmHg 56%
    17:00 +15°C° 0 mm 1 mps 722 mmHg 66%
    18:00 +13°C° 0 mm 1 mps 722 mmHg 75%
    19:00 +12°C° 0 mm 1 mps 722 mmHg 76%
    20:00 +12°C° 0 mm 1 mps 723 mmHg 78%
    21:00 +10°C° 0 mm 0 mps 723 mmHg 79%
    22:00 +10°C° 0 mm 0 mps 723 mmHg 78%
    23:00 +10°C° 0 mm 0 mps 723 mmHg 77%

    24 January, Wednesday

    Time Temperature Precipitation Wind Pressure Humidity
    00:00 +9°C° 0 mm 0 mps 723 mmHg 76%
    01:00 +9°C° 0 mm 0 mps 722 mmHg 75%
    02:00 +9°C° 0 mm 0 mps 722 mmHg 73%
    03:00 +9°C° 0 mm 0 mps 722 mmHg 72%
    04:00 +8°C° 0 mm 0 mps 721 mmHg 70%
    05:00 +9°C° 0 mm 1 mps 721 mmHg 68%
    06:00 +9°C° 0 mm 1 mps 721 mmHg 66%
    07:00 +11°C° 0 mm 1 mps 722 mmHg 62%
    08:00 +12°C° 0 mm 1 mps 722 mmHg 58%
    09:00 +14°C° 0 mm 1 mps 723 mmHg 54%
    10:00 +15°C° 0 mm 1 mps 723 mmHg 48%
    11:00 +18°C° 0 mm 1 mps 723 mmHg 42%
    12:00 +20°C° 0 mm 1 mps 723 mmHg 36%
    13:00 +20°C° 0 mm 1 mps 722 mmHg 37%
    14:00 +20°C° 0 mm 1 mps 722 mmHg 37%
    15:00 +21°C° 0 mm 1 mps 721 mmHg 37%
    16:00 +19°C° 0 mm 1 mps 721 mmHg 46%
    17:00 +15°C° 0 mm 1 mps 721 mmHg 55%
    18:00 +13°C° 0 mm 1 mps 721 mmHg 64%
    19:00 +13°C° 0 mm 1 mps 721 mmHg 65%
    20:00 +11°C° 0 mm 0 mps 722 mmHg 66%
    21:00 +11°C° 0 mm 0 mps 722 mmHg 68%
    22:00 +11°C° 0 mm 0 mps 722 mmHg 67%
    23:00 +10°C° 0 mm 0 mps 721 mmHg 66%

    25 January, Thursday

    Time Temperature Precipitation Wind Pressure Humidity
    00:00 +10°C° 0 mm 0 mps 721 mmHg 65%
    01:00 +10°C° 0 mm 0 mps 721 mmHg 64%
    02:00 +11°C° 0 mm 1 mps 721 mmHg 62%
    03:00 +10°C° 0 mm 1 mps 721 mmHg 61%
    04:00 +10°C° 0 mm 1 mps 721 mmHg 60%
    05:00 +10°C° 0 mm 1 mps 720 mmHg 59%
    06:00 +10°C° 0 mm 1 mps 720 mmHg 58%
    07:00 +11°C° 0 mm 1 mps 721 mmHg 57%
    08:00 +12°C° 0 mm 1 mps 722 mmHg 56%
    09:00 +13°C° 0 mm 1 mps 722 mmHg 55%
    10:00 +14°C° 0 mm 1 mps 722 mmHg 52%
    11:00 +16°C° 0 mm 2 mps 722 mmHg 49%
    12:00 +17°C° 0 mm 2 mps 722 mmHg 46%
    13:00 +17°C° 0 mm 3 mps 722 mmHg 47%
    14:00 +17°C° 0 mm 3 mps 721 mmHg 48%
    15:00 +18°C° 0 mm 4 mps 721 mmHg 50%
    16:00 +16°C° 0 mm 3 mps 721 mmHg 61%
    17:00 +13°C° 0 mm 3 mps 721 mmHg 72%
    18:00 +13°C° 0 mm 2 mps 721 mmHg 83%
    19:00 +12°C° 0 mm 2 mps 721 mmHg 87%
    20:00 +12°C° 0 mm 2 mps 722 mmHg 90%
    21:00 +10°C° 0 mm 2 mps 722 mmHg 94%
    22:00 +10°C° 0 mm 2 mps 722 mmHg 94%
    23:00 +9°C° 0 mm 2 mps 722 mmHg 94%
    Show more